DLH4421 EDDF-KMDW

Flight info

Callsign DLH4421
Flight time N/A
Altitude 36000
Route OBOKA5G/25C OBOKA Z28 DIBIR DCT BUDIP DCT MIMVA DCT GETNO DCT NIBOG DCT PIKIL/M081F370 DCT 57N020W 57N030W 57N040W 56N050W DCT JANJO/N0471F380 DCT BORUB DCT MUNBO DCT MODOK DCT MOFAT DCT MIXAK/N0474F400 DCT YVV DCT NOSIK DCT KATTY DCT DUNKS DCT PADDE DCT LLTCH PANGG5
Aircraft A339/H-SADE1E2E3GHIJ3J5M1P2RWXY/LB2D1

Departure

Time 2026-05-05 19:31
Airport Frankfurt Main Airport (EDDF)

Arrival

Time N/A
Airport Chicago Midway International Airport (KMDW)
Time Latitude Longitude Altitude Speed Heading
2026-05-05 19:02 50.04781 8.56493 362 ft 0 kts 339°
2026-05-05 19:14 50.04775 8.56497 363 ft 2 kts 339°
2026-05-05 19:14 50.04762 8.56504 369 ft 2 kts 339°
2026-05-05 19:14 50.04748 8.56512 368 ft 2 kts 339°
2026-05-05 19:14 50.04733 8.56517 367 ft 2 kts 312°
2026-05-05 19:15 50.04723 8.56533 365 ft 2 kts 280°
2026-05-05 19:15 50.04720 8.56548 367 ft 2 kts 257°
2026-05-05 19:15 50.04723 8.56567 362 ft 2 kts 258°
2026-05-05 19:15 50.04721 8.56563 366 ft 1 kts 250°
2026-05-05 19:16 50.04716 8.56543 362 ft 5 kts 249°
2026-05-05 19:16 50.04714 8.56534 368 ft 0 kts 249°
2026-05-05 19:17 50.04714 8.56533 367 ft 1 kts 249°
2026-05-05 19:18 50.04704 8.56509 363 ft 4 kts 237°
2026-05-05 19:18 50.04682 8.56472 368 ft 6 kts 229°
2026-05-05 19:18 50.04655 8.56382 367 ft 12 kts 247°
2026-05-05 19:18 50.04620 8.56243 363 ft 16 kts 249°
2026-05-05 19:19 50.04578 8.56072 366 ft 17 kts 250°
2026-05-05 19:19 50.04532 8.55959 367 ft 7 kts 216°
2026-05-05 19:19 50.04484 8.55936 366 ft 7 kts 196°
2026-05-05 19:19 50.04433 8.55915 368 ft 8 kts 191°
2026-05-05 19:20 50.04365 8.55923 368 ft 13 kts 170°
2026-05-05 19:20 50.04260 8.55960 366 ft 16 kts 182°
2026-05-05 19:20 50.04166 8.55926 362 ft 13 kts 168°
2026-05-05 19:20 50.04143 8.55943 365 ft 0 kts 156°
2026-05-05 19:21 50.04133 8.55950 364 ft 5 kts 156°
2026-05-05 19:21 50.04080 8.56017 360 ft 13 kts 112°
2026-05-05 19:21 50.04101 8.56180 364 ft 19 kts 68°
2026-05-05 19:21 50.04160 8.56413 364 ft 27 kts 70°
2026-05-05 19:22 50.04216 8.56646 366 ft 21 kts 70°
2026-05-05 19:22 50.04262 8.56842 366 ft 18 kts 70°
2026-05-05 19:22 50.04306 8.57028 367 ft 18 kts 69°
2026-05-05 19:22 50.04348 8.57202 369 ft 17 kts 70°
2026-05-05 19:23 50.04388 8.57372 369 ft 17 kts 70°
2026-05-05 19:23 50.04429 8.57546 373 ft 18 kts 69°
2026-05-05 19:23 50.04470 8.57722 373 ft 18 kts 70°
2026-05-05 19:23 50.04518 8.57912 372 ft 20 kts 69°
2026-05-05 19:24 50.04566 8.58122 370 ft 21 kts 69°
2026-05-05 19:24 50.04616 8.58330 376 ft 19 kts 68°
2026-05-05 19:24 50.04642 8.58436 376 ft 0 kts 69°
2026-05-05 19:25 50.04642 8.58437 376 ft 1 kts 69°
2026-05-05 19:25 50.04649 8.58464 376 ft 4 kts 69°
2026-05-05 19:25 50.04652 8.58491 378 ft 3 kts 82°
2026-05-05 19:26 50.04644 8.58535 378 ft 6 kts 107°
2026-05-05 19:26 50.04617 8.58573 376 ft 5 kts 152°
2026-05-05 19:26 50.04600 8.58583 376 ft 0 kts 158°
2026-05-05 19:28 50.04580 8.58596 380 ft 7 kts 157°
2026-05-05 19:28 50.04520 8.58606 376 ft 9 kts 191°
2026-05-05 19:29 50.04478 8.58538 376 ft 9 kts 239°
2026-05-05 19:29 50.04461 8.58477 378 ft 0 kts 248°
2026-05-05 19:30 50.04457 8.58462 377 ft 8 kts 248°
2026-05-05 19:30 50.04366 8.58091 376 ft 75 kts 250°
2026-05-05 19:30 50.04097 8.56965 371 ft 144 kts 249°
2026-05-05 19:30 50.03683 8.55249 411 ft 188 kts 249°
2026-05-05 19:31 50.03250 8.53414 1264 ft 178 kts 250°
2026-05-05 19:31 50.02845 8.51593 2080 ft 175 kts 254°
2026-05-05 19:31 50.02673 8.49664 2614 ft 189 kts 270°
2026-05-05 19:31 50.02816 8.47539 2991 ft 207 kts 276°
2026-05-05 19:32 50.02988 8.45206 3367 ft 224 kts 272°
2026-05-05 19:32 50.02908 8.42784 3876 ft 226 kts 260°
2026-05-05 19:32 50.02600 8.40293 4029 ft 247 kts 257°
2026-05-05 19:32 50.02251 8.37613 4033 ft 256 kts 258°
2026-05-05 19:33 50.01907 8.34892 4034 ft 256 kts 258°
2026-05-05 19:33 50.01574 8.32177 4035 ft 256 kts 258°
2026-05-05 19:33 50.01310 8.29432 4029 ft 257 kts 267°
2026-05-05 19:33 50.01549 8.26710 4040 ft 260 kts 286°
2026-05-05 19:34 50.02296 8.24121 4140 ft 265 kts 294°
2026-05-05 19:34 50.03103 8.21544 4783 ft 263 kts 293°
2026-05-05 19:34 50.03880 8.18969 5439 ft 264 kts 292°
2026-05-05 19:35 50.05407 8.13739 6666 ft 267 kts 292°
2026-05-05 19:35 50.06320 8.11195 7242 ft 271 kts 302°
2026-05-05 19:35 50.07500 8.08883 7850 ft 274 kts 307°
2026-05-05 19:35 50.08718 8.06574 8456 ft 277 kts 307°
2026-05-05 19:36 50.09938 8.04234 9088 ft 279 kts 306°
2026-05-05 19:36 50.11158 8.01866 9700 ft 282 kts 306°
2026-05-05 19:36 50.12393 7.99460 10114 ft 291 kts 306°
2026-05-05 19:36 50.13695 7.96914 10264 ft 309 kts 306°
2026-05-05 19:37 50.15074 7.94219 10411 ft 326 kts 306°
2026-05-05 19:37 50.16510 7.91416 10817 ft 333 kts 306°
2026-05-05 19:37 50.17964 7.88580 11353 ft 336 kts 306°
2026-05-05 19:37 50.19429 7.85717 11906 ft 339 kts 306°
2026-05-05 19:38 50.20908 7.82824 12430 ft 342 kts 306°
2026-05-05 19:38 50.22394 7.79913 12963 ft 345 kts 306°
2026-05-05 19:38 50.23897 7.76976 13508 ft 347 kts 307°
2026-05-05 19:38 50.25629 7.74312 13947 ft 353 kts 319°
2026-05-05 19:39 50.27717 7.72226 14419 ft 360 kts 331°
2026-05-05 19:39 50.30004 7.70678 14861 ft 363 kts 335°
2026-05-05 19:39 50.32364 7.69109 15319 ft 367 kts 335°
2026-05-05 19:39 50.34715 7.67518 15776 ft 370 kts 335°
2026-05-05 19:40 50.37082 7.65898 16246 ft 373 kts 335°
2026-05-05 19:40 50.39468 7.64257 16690 ft 376 kts 335°
2026-05-05 19:40 50.41868 7.62604 17150 ft 379 kts 335°
2026-05-05 19:40 50.44290 7.60934 17611 ft 382 kts 335°
2026-05-05 19:41 50.46733 7.59248 18064 ft 384 kts 335°
2026-05-05 19:41 50.49190 7.57553 18461 ft 387 kts 335°
2026-05-05 19:41 50.51665 7.55842 18865 ft 390 kts 335°
2026-05-05 19:41 50.54128 7.54138 19264 ft 393 kts 335°
2026-05-05 19:42 50.56573 7.52214 19678 ft 395 kts 328°
2026-05-05 19:42 50.58909 7.49823 20051 ft 397 kts 326°
2026-05-05 19:42 50.61197 7.47454 20466 ft 400 kts 326°
2026-05-05 19:42 50.63566 7.45021 20855 ft 403 kts 326°
2026-05-05 19:43 50.65925 7.42605 21262 ft 406 kts 326°
2026-05-05 19:43 50.68299 7.40172 21655 ft 409 kts 326°
2026-05-05 19:43 50.70695 7.37711 22042 ft 412 kts 326°
2026-05-05 19:43 50.73044 7.35101 22426 ft 415 kts 320°
2026-05-05 19:44 50.75126 7.32007 22807 ft 417 kts 311°
2026-05-05 19:44 50.76938 7.28413 23189 ft 420 kts 303°
2026-05-05 19:44 50.78602 7.24598 23562 ft 422 kts 304°
2026-05-05 19:44 50.80293 7.20786 23931 ft 425 kts 304°
2026-05-05 19:45 50.82001 7.16959 24284 ft 427 kts 304°
2026-05-05 19:45 50.83721 7.13106 24637 ft 430 kts 304°
2026-05-05 19:45 50.85449 7.09229 24989 ft 432 kts 304°
2026-05-05 19:45 50.87185 7.05322 25327 ft 435 kts 304°
2026-05-05 19:46 50.88926 7.01396 25682 ft 437 kts 304°
2026-05-05 19:46 50.90677 6.97441 26031 ft 439 kts 304°
2026-05-05 19:46 50.92439 6.93457 26364 ft 442 kts 304°
2026-05-05 19:46 50.94206 6.89458 26705 ft 444 kts 304°
2026-05-05 19:47 50.95984 6.85428 27043 ft 447 kts 304°
2026-05-05 19:47 50.97769 6.81376 27357 ft 450 kts 304°
2026-05-05 19:47 50.99564 6.77294 27702 ft 452 kts 304°
2026-05-05 19:47 51.01367 6.73190 28020 ft 454 kts 304°
2026-05-05 19:48 51.03177 6.69061 28327 ft 456 kts 303°
2026-05-05 19:48 51.04993 6.64913 28680 ft 458 kts 303°
2026-05-05 19:48 51.06793 6.60795 28971 ft 461 kts 303°
2026-05-05 19:48 51.08625 6.56599 29282 ft 463 kts 303°
2026-05-05 19:49 51.10463 6.52378 29585 ft 465 kts 303°
2026-05-05 19:49 51.11711 6.49508 29787 ft 467 kts 303°
2026-05-05 19:49 51.14162 6.43862 30155 ft 470 kts 303°
2026-05-05 19:49 51.16025 6.39561 30415 ft 472 kts 303°
2026-05-05 19:50 51.17892 6.35244 30680 ft 475 kts 303°
2026-05-05 19:50 51.19774 6.30888 30952 ft 477 kts 303°
2026-05-05 19:50 51.21654 6.26528 31226 ft 479 kts 303°
2026-05-05 19:50 51.23545 6.22133 31474 ft 481 kts 302°
2026-05-05 19:51 51.25441 6.17722 31747 ft 483 kts 302°
2026-05-05 19:51 51.27348 6.13276 32013 ft 485 kts 302°
2026-05-05 19:51 51.29243 6.08806 32239 ft 487 kts 301°
2026-05-05 19:51 51.31102 6.04277 32477 ft 489 kts 301°
2026-05-05 19:52 51.32955 5.99709 32684 ft 490 kts 300°
2026-05-05 19:52 51.34810 5.95135 32880 ft 491 kts 300°
2026-05-05 19:52 51.36706 5.90565 33033 ft 494 kts 304°
2026-05-05 19:52 51.38898 5.86311 33196 ft 497 kts 311°
2026-05-05 19:53 51.41410 5.82479 33349 ft 499 kts 318°
2026-05-05 19:53 51.43995 5.78876 33525 ft 499 kts 317°
2026-05-05 19:53 51.46602 5.75185 33707 ft 499 kts 316°
2026-05-05 19:53 51.49204 5.71480 33899 ft 499 kts 316°
2026-05-05 19:54 51.51792 5.67787 34095 ft 497 kts 316°
2026-05-05 19:54 51.54373 5.64100 34295 ft 496 kts 316°
2026-05-05 19:54 51.56946 5.60421 34482 ft 495 kts 316°
2026-05-05 19:54 51.59516 5.56741 34686 ft 493 kts 316°
2026-05-05 19:55 51.62076 5.53070 34866 ft 492 kts 316°
2026-05-05 19:55 51.64633 5.49398 35053 ft 491 kts 316°
2026-05-05 19:55 51.67183 5.45730 35226 ft 490 kts 316°
2026-05-05 19:55 51.69719 5.42077 35405 ft 489 kts 316°
2026-05-05 19:56 51.72224 5.38463 35574 ft 488 kts 315°
2026-05-05 19:56 51.74782 5.34767 35753 ft 487 kts 315°
2026-05-05 19:56 51.77305 5.31115 35874 ft 487 kts 315°
2026-05-05 19:57 51.82315 5.23845 35874 ft 484 kts 315°